Weather History for KFHB - October, 2012

Change the Weather History Date:

Wednesday, October 24, 2012

  Actual Average (KJAX) Record (KJAX)
Temperature  
Mean Temperature 74 °F 68 °F  
Max Temperature 82 °F 79 °F 87 °F (1949)
Min Temperature 66 °F 58 °F 37 °F (2006)
Degree Days  
Heating Degree Days 0 1  
Month to date heating degree days 12  
Since 1 July heating degree days 12  
Cooling Degree Days 9 5  
Month to date cooling degree days 171  
Year to date cooling degree days 2557  
Growing Degree Days 24 (Base 50)    
Moisture  
Dew Point 67 °F    
Average Humidity 78    
Maximum Humidity 100    
Minimum Humidity 58    
Precipitation  
Precipitation 0.00 in 0.09 in 4.69 in (1947)
Month to date precipitation 3.41  
Year to date precipitation 46.96  
Snow  
Snow 0.00 in 0.00 in 0.00 in (2002)
Month to date snowfall 0.0  
Since 1 July snowfall 0.0  
Since 1 September snowfall 0.0  
Snow Depth -    
Sea Level Pressure  
Sea Level Pressure 30.05 in    
Wind  
Wind Speed 6 mph (NE)    
Max Wind Speed 14 mph    
Max Gust Speed 18 mph    
Visibility 10 miles    
Events      
T = Trace of Precipitation, MM = Missing Value Source: NWS Daily Summary

Daily Weather History Graph

Daily Weather History Graph

Search for Another Location

Airport or City:

Trip Planner

Search our weather history database for the weather conditions in past years. The results will help you decide how hot, cold, wet, or windy it might be!

Date:

Astronomy

Oct. 24, 2012 Rise Set
Actual Time 7:34 AM EDT 6:44 PM EDT
Civil Twilight 7:10 AM EDT 7:09 PM EDT
Nautical Twilight 6:42 AM EDT 7:37 PM EDT
Astronomical Twilight 6:14 AM EDT 8:05 PM EDT
Moon 3:42 PM EDT (10/24) 2:48 AM EDT (10/24)
Length of Visible Light 11h 58m
Length of Day
11h 09m
Waxing Gibbous, 76% of the Moon is Illuminated
Oct 24
Waxing Gibbous
Oct 29
Full
Nov 6
Last Quarter
Nov 13
New
Nov 20
First Quarter

Hourly Weather History & Observations

Time (EDT) Temp. Heat Index Dew Point Humidity Pressure Visibility Wind Dir Wind Speed Gust Speed Precip Events Conditions
12:15 AM 75.2 °F - 64.4 °F 69% 30.08 in 10.0 mi East 9.2 mph - N/A   Clear
12:35 AM 75.2 °F - 62.6 °F 65% 30.08 in 10.0 mi East 8.1 mph - N/A   Clear
12:55 AM 75.2 °F - 64.4 °F 69% 30.08 in 10.0 mi East 6.9 mph - N/A   Clear
1:15 AM 73.4 °F - 64.4 °F 73% 30.07 in 10.0 mi East 8.1 mph - N/A   Clear
1:35 AM 73.4 °F - 64.4 °F 73% 30.07 in 10.0 mi East 6.9 mph - N/A   Clear
1:55 AM 73.4 °F - 64.4 °F 73% 30.07 in 10.0 mi ENE 5.8 mph - N/A   Clear
2:15 AM 73.4 °F - 62.6 °F 69% 30.07 in 10.0 mi ENE 5.8 mph - N/A   Clear
2:35 AM 71.6 °F - 64.4 °F 78% 30.06 in 10.0 mi ENE 4.6 mph - N/A   Clear
2:55 AM 71.6 °F - 64.4 °F 78% 30.06 in 10.0 mi NE 3.5 mph - N/A   Clear
3:15 AM 71.6 °F - 64.4 °F 78% 30.05 in 10.0 mi Calm Calm - N/A   Scattered Clouds
3:35 AM 71.6 °F - 66.2 °F 83% 30.05 in 10.0 mi NE 4.6 mph - N/A   Scattered Clouds
3:55 AM 71.6 °F - 64.4 °F 78% 30.04 in 10.0 mi NE 3.5 mph - N/A   Scattered Clouds
4:15 AM 68.0 °F - 62.6 °F 83% 30.03 in 10.0 mi Calm Calm - N/A   Clear
4:35 AM 68.0 °F - 64.4 °F 88% 30.03 in 10.0 mi NW 3.5 mph - N/A   Clear
4:55 AM 68.0 °F - 64.4 °F 88% 30.04 in 10.0 mi Calm Calm - N/A   Clear
5:15 AM 66.2 °F - 64.4 °F 94% 30.04 in 10.0 mi Calm Calm - N/A   Clear
5:35 AM 66.2 °F - 64.4 °F 94% 30.04 in 10.0 mi NNW 3.5 mph - N/A   Clear
5:55 AM 68.0 °F - 64.4 °F 88% 30.05 in 10.0 mi Calm Calm - N/A   Clear
6:15 AM 68.0 °F - 66.2 °F 94% 30.05 in 10.0 mi Calm Calm - N/A   Clear
6:35 AM 68.0 °F - 64.4 °F 88% 30.05 in 10.0 mi Calm Calm - N/A   Clear
6:55 AM 68.0 °F - 66.2 °F 94% 30.06 in 10.0 mi Calm Calm - N/A   Clear
7:15 AM 66.2 °F - 64.4 °F 94% 30.07 in 7.0 mi Calm Calm - N/A   Scattered Clouds
7:35 AM 68.0 °F - 68.0 °F 100% 30.07 in 7.0 mi NNW 3.5 mph - N/A   Scattered Clouds
7:55 AM 68.0 °F - 66.2 °F 94% 30.07 in 5.0 mi Calm Calm - N/A   Clear
8:15 AM 68.0 °F - 68.0 °F 100% 30.08 in 7.0 mi NW 3.5 mph - N/A   Clear
8:35 AM 71.6 °F - 69.8 °F 94% 30.08 in 10.0 mi NNW 3.5 mph - N/A   Clear
8:55 AM 73.4 °F - 69.8 °F 88% 30.08 in 10.0 mi NNW 4.6 mph - N/A   Scattered Clouds
9:15 AM 75.2 °F - 69.8 °F 83% 30.09 in 10.0 mi North 3.5 mph - N/A   Scattered Clouds
9:35 AM 78.8 °F - 69.8 °F 74% 30.09 in 10.0 mi NNE 5.8 mph - N/A   Clear
9:55 AM 78.8 °F - 68.0 °F 69% 30.10 in 10.0 mi NNE 6.9 mph - N/A   Clear
10:15 AM 80.6 °F 82.7 °F 66.2 °F 61% 30.10 in 10.0 mi ENE 8.1 mph - N/A   Scattered Clouds
10:35 AM 80.6 °F 82.7 °F 66.2 °F 61% 30.10 in 10.0 mi NE 8.1 mph - N/A   Clear
10:55 AM 80.6 °F 83.2 °F 68.0 °F 65% 30.10 in 10.0 mi NE 10.4 mph - N/A   Clear
11:15 AM 82.4 °F 85.4 °F 68.0 °F 62% 30.09 in 10.0 mi NNE 9.2 mph - N/A   Clear
11:35 AM 80.6 °F 83.9 °F 69.8 °F 70% 30.09 in 10.0 mi NE 11.5 mph - N/A   Scattered Clouds
11:55 AM 80.6 °F 84.6 °F 71.6 °F 74% 30.09 in 10.0 mi NE 11.5 mph - N/A   Mostly Cloudy
12:15 PM 80.6 °F 83.2 °F 68.0 °F 65% 30.08 in 10.0 mi NNE 11.5 mph - N/A   Scattered Clouds
12:35 PM 82.4 °F 85.4 °F 68.0 °F 62% 30.08 in 10.0 mi NE 8.1 mph - N/A   Clear
12:55 PM 80.6 °F 83.2 °F 68.0 °F 65% 30.07 in 10.0 mi ENE 11.5 mph 16.1 mph N/A   Clear
1:15 PM 82.4 °F 84.6 °F 66.2 °F 58% 30.06 in 10.0 mi ENE 13.8 mph 17.3 mph N/A   Clear
1:35 PM 82.4 °F 84.6 °F 66.2 °F 58% 30.06 in 10.0 mi East 11.5 mph - N/A   Clear
1:55 PM 80.6 °F 82.7 °F 66.2 °F 61% 30.05 in 10.0 mi NE 12.7 mph - N/A   Clear
2:15 PM 82.4 °F 84.6 °F 66.2 °F 58% 30.04 in 10.0 mi ENE 11.5 mph - N/A   Clear
2:35 PM 82.4 °F 84.6 °F 66.2 °F 58% 30.04 in 10.0 mi NE 11.5 mph - N/A   Clear
2:55 PM 80.6 °F 82.3 °F 64.4 °F 58% 30.03 in 10.0 mi NNE 10.4 mph - N/A   Clear
3:15 PM 80.6 °F 83.2 °F 68.0 °F 65% 30.03 in 10.0 mi NE 8.1 mph 17.3 mph N/A   Clear
3:35 PM 80.6 °F 83.2 °F 68.0 °F 65% 30.03 in 10.0 mi NE 12.7 mph 17.3 mph N/A   Clear
3:55 PM 78.8 °F - 68.0 °F 69% 30.02 in 10.0 mi NNE 11.5 mph - N/A   Clear
4:15 PM 78.8 °F - 68.0 °F 69% 30.03 in 10.0 mi NNE 9.2 mph 18.4 mph N/A   Mostly Cloudy
4:35 PM 78.8 °F - 69.8 °F 74% 30.02 in 10.0 mi NE 11.5 mph 18.4 mph N/A   Scattered Clouds
5:15 PM 78.8 °F - 69.8 °F 74% 30.02 in 10.0 mi NNE 10.4 mph - N/A   Clear
5:35 PM 78.8 °F - 69.8 °F 74% 30.02 in 10.0 mi NNE 10.4 mph - N/A   Clear
5:55 PM 77.0 °F - 69.8 °F 78% 30.02 in 10.0 mi NNE 9.2 mph 17.3 mph N/A   Clear
6:15 PM 77.0 °F - 69.8 °F 78% 30.01 in 10.0 mi NE 11.5 mph - N/A   Clear
6:35 PM 75.2 °F - 69.8 °F 83% 30.02 in 7.0 mi NE 10.4 mph - N/A   Mostly Cloudy
6:55 PM 73.4 °F - 71.6 °F 94% 30.02 in 7.0 mi NNE 5.8 mph - N/A   Overcast
7:15 PM 73.4 °F - 69.8 °F 88% 30.02 in 10.0 mi NNE 5.8 mph - N/A   Scattered Clouds
7:35 PM 73.4 °F - 71.6 °F 94% 30.02 in 10.0 mi NNE 4.6 mph - N/A   Scattered Clouds
7:55 PM 73.4 °F - 71.6 °F 94% 30.02 in 10.0 mi NE 6.9 mph - N/A   Scattered Clouds
8:35 PM 73.4 °F - 71.6 °F 94% 30.03 in 10.0 mi NE 8.1 mph - N/A   Scattered Clouds
9:15 PM 73.4 °F - 69.8 °F 88% 30.03 in 10.0 mi ENE 6.9 mph - N/A   Clear
9:35 PM 73.4 °F - 69.8 °F 88% 30.03 in 10.0 mi NE 5.8 mph - N/A   Clear
9:55 PM 73.4 °F - 69.8 °F 88% 30.03 in 10.0 mi NE 6.9 mph - N/A   Clear
10:15 PM 73.4 °F - 69.8 °F 88% 30.03 in 10.0 mi NE 6.9 mph - N/A   Scattered Clouds
10:55 PM 73.4 °F - 69.8 °F 88% 30.03 in 10.0 mi NE 6.9 mph - N/A   Clear
11:15 PM 73.4 °F - 69.8 °F 88% 30.03 in 10.0 mi NE 6.9 mph - N/A   Clear
11:35 PM 73.4 °F - 69.8 °F 88% 30.02 in 10.0 mi NE 5.8 mph - N/A   Clear